CW0775 Weather Reports


time (UTC)temp
F
wind
direction
speed
knots
gust
knots
rain 1hr
in
rain 24hr
in
rain mn
in
humidity
%
barometer
mb
20260905021506 63 255 0.0 0.0 0.01 0.02 0.02 92 1017.9
20260905021005 63 272 0.0 1.7 0.01 0.02 0.02 91 1017.9
20260905020506 63 269 0.0 2.6 0.01 0.02 0.02 91 1017.8
20260905020005 63 277 0.9 2.6 0.01 0.02 0.02 91 1017.6
20260905014505 63 265 0.0 0.0 0.01 0.02 0.02 91 1017.6
20260905014005 64 248 0.0 1.7 0.01 0.02 0.02 91 1017.6
20260905013505 64 263 0.0 1.7 0.01 0.02 0.02 90 1017.6
20260905013005 64 270 0.9 2.6 0.01 0.02 0.02 90 1017.6
20260905011505 64 260 0.0 1.7 0.00 0.01 0.01 90 1017.9
20260905011005 64 265 0.0 0.0 0.00 0.01 0.01 91 1017.8
20260905010506 64 268 0.0 1.7 0.00 0.01 0.01 91 1017.6
20260905010005 64 267 0.0 2.6 0.00 0.01 0.01 91 1017.9
20260905003505 64 270 0.0 1.7 0.00 0.01 0.01 90 1017.6
20260905001505 65 254 0.0 1.7 0.00 0.01 0.01 89 1017.6
20260905001005 65 268 0.9 1.7 0.00 0.01 0.01 89 1017.6
20260905000005 65 245 0.0 4.3 0.00 0.01 0.01 89 1017.3
20260904234505 65 246 0.0 1.7 0.01 0.01 0.01 89 1017.3
20260904234005 65 246 0.0 1.7 0.01 0.01 0.01 89 1017.3
20260904233005 64 246 0.9 2.6 0.01 0.01 0.01 89 1017.3
20260904231505 65 246 0.0 0.0 0.01 0.01 0.01 88 1017.3
20260904231005 65 243 0.0 2.6 0.01 0.01 0.01 88 1016.8
20260904230506 65 279 1.7 4.3 0.01 0.01 0.01 88 1016.9
20260904230004 66 246 0.0 13.0 0.01 0.01 0.01 87 1017.5
20260904224004 68 311 1.7 7.0 0.00 0.00 0.00 85 1016.9
20260904223505 67 285 2.6 7.0 0.00 0.00 0.00 85 1016.8
20260904223005 68 276 1.7 14.8 0.00 0.00 0.00 85 1016.7
20260904221505 68 289 5.2 15.6 0.00 0.00 0.00 85 1016.6
20260904221005 68 291 5.2 11.3 0.00 0.00 0.00 87 1016.6
20260904220505 68 266 1.7 4.3 0.00 0.00 0.00 87 1016.6
20260904220005 68 308 0.9 11.3 0.00 0.00 0.00 87 1016.6
20260904214506 68 285 4.3 11.3 0.00 0.00 0.00 87 1016.3
20260904214004 68 268 6.1 13.0 0.00 0.00 0.00 87 1016.5
20260904213504 67 291 6.1 13.0 0.00 0.00 0.00 88 1016.0
20260904213005 68 290 8.7 14.8 0.00 0.00 0.00 87 1016.2
20260904211004 69 255 7.8 18.2 0.00 0.00 0.00 81 1015.7
20260904210506 69 277 10.4 18.2 0.00 0.00 0.00 81 1015.9
20260904210004 70 279 7.8 21.7 0.00 0.00 0.00 80 1015.9
20260904204505 71 286 7.8 21.7 0.00 0.00 0.00 78 1015.7
20260904204005 71 350 13.0 15.6 0.00 0.00 0.00 77 1015.9
20260904203504 71 303 11.3 19.1 0.00 0.00 0.00 77 1015.8
20260904201504 75 304 1.7 11.3 0.00 0.00 0.00 66 1015.1
20260904201005 75 294 5.2 11.3 0.00 0.00 0.00 66 1014.9
20260904200506 74 250 2.6 7.0 0.00 0.00 0.00 67 1014.9
20260904200005 74 298 1.7 7.0 0.00 0.00 0.00 68 1014.9
20260904193505 75 273 0.9 2.6 0.00 0.00 0.00 68 1014.2
20260904193005 75 288 1.7 8.7 0.00 0.00 0.00 67 1014.2
20260904191506 76 281 2.6 7.0 0.00 0.00 0.00 64 1013.9
20260904191005 77 291 4.3 6.1 0.00 0.00 0.00 63 1013.9
20260904190505 77 238 2.6 11.3 0.00 0.00 0.00 63 1013.7
20260904190005 77 263 1.7 12.2 0.00 0.00 0.00 63 1013.9
20260904184505 77 277 1.7 12.2 0.00 0.00 0.00 63 1013.5
20260904184004 78 250 2.6 11.3 0.00 0.00 0.00 62 1013.5
20260904183505 78 294 4.3 11.3 0.00 0.00 0.00 61 1013.5
20260904183005 78 272 2.6 6.1 0.00 0.00 0.00 62 1013.5
20260904181504 78 207 0.9 6.1 0.00 0.00 0.00 62 1013.3
20260904181004 78 293 1.7 6.1 0.00 0.00 0.00 61 1013.4
20260904180505 79 324 3.5 11.3 0.00 0.00 0.00 60 1013.2
20260904180005 79 228 5.2 13.0 0.00 0.00 0.00 60 1013.3
20260904174506 80 246 6.1 12.2 0.00 0.00 0.00 59 1013.2
20260904173505 80 306 2.6 11.3 0.00 0.00 0.00 59 1013.0
20260904173005 80 229 5.2 11.3 0.00 0.00 0.00 58 1013.0
20260904171505 80 275 5.2 14.8 0.00 0.00 0.00 58 1013.2
20260904171005 81 262 6.1 18.2 0.00 0.00 0.00 57 1013.2
20260904170505 81 23 3.5 12.2 0.00 0.00 0.00 57 1013.2
20260904164505 82 255 5.2 13.0 0.00 0.00 0.00 55 1012.9
20260904164005 82 259 5.2 14.8 0.00 0.00 0.00 56 1012.9
20260904163505 83 273 2.6 11.3 0.00 0.00 0.00 55 1012.9
20260904161505 82 286 10.4 21.7 0.00 0.00 0.00 54 1013.1
20260904161004 83 279 6.1 13.0 0.00 0.00 0.00 54 1013.0
20260904160505 83 280 5.2 12.2 0.00 0.00 0.00 53 1012.9
20260904160004 83 258 5.2 13.0 0.00 0.00 0.00 54 1013.0
20260904154505 82 283 7.8 12.2 0.00 0.00 0.00 54 1012.9
20260904153505 83 285 7.0 13.0 0.00 0.00 0.00 54 1012.9
20260904151506 84 358 4.3 14.8 0.00 0.00 0.00 52 1012.7
20260904144505 86 209 5.2 12.2 0.00 0.00 0.00 50 1012.9
20260904144004 86 307 4.3 21.7 0.00 0.00 0.00 49 1012.7
20260904143005 85 281 10.4 19.1 0.00 0.00 0.00 50 1012.6
20260904141504 86 287 6.1 15.6 0.00 0.00 0.00 48 1012.5
20260904141004 86 233 9.6 15.6 0.00 0.00 0.00 48 1012.6
20260904140505 86 253 6.1 15.6 0.00 0.00 0.00 48 1012.7
20260904140004 87 273 7.8 19.1 0.00 0.00 0.00 48 1012.7
20260904134506 86 288 6.1 15.6 0.00 0.00 0.00 48 1012.9
20260904134004 86 256 7.0 13.0 0.00 0.00 0.00 48 1012.9
20260904133505 86 316 6.1 8.7 0.00 0.00 0.00 49 1012.9
20260904133004 86 307 5.2 13.0 0.00 0.00 0.00 50 1012.9
20260904131505 86 283 6.1 13.0 0.00 0.00 0.00 50 1013.0
20260904131005 86 304 4.3 13.0 0.00 0.00 0.00 49 1013.0
20260904130505 85 279 7.8 13.0 0.00 0.00 0.00 51 1013.2
20260904130005 85 320 6.1 14.8 0.00 0.00 0.00 50 1013.2
20260904124005 84 260 9.6 14.8 0.00 0.00 0.00 52 1013.5
20260904123504 85 271 8.7 13.0 0.00 0.00 0.00 51 1013.6
20260904123004 85 298 6.1 35.6 0.00 0.00 0.00 52 1013.9
20260904121004 85 297 6.1 13.0 0.00 0.00 0.00 52 1013.7
20260904120505 85 187 5.2 11.3 0.00 0.00 0.00 53 1013.6
20260904120004 84 284 8.7 18.2 0.00 0.00 0.00 53 1013.9
20260904114506 84 238 6.1 11.3 0.00 0.00 0.00 54 1014.2
20260904114003 83 305 6.1 15.6 0.00 0.00 0.00 56 1014.2
20260904113505 84 239 6.1 11.3 0.00 0.00 0.00 55 1014.2
20260904111504 82 285 7.8 14.8 0.00 0.00 0.00 58 1014.5
20260904111004 82 280 8.7 21.7 0.00 0.00 0.00 57 1014.4
20260904110505 83 304 5.2 8.7 0.00 0.00 0.00 57 1014.5
20260904110004 83 287 5.2 15.6 0.00 0.00 0.00 58 1014.6
20260904104504 82 323 8.7 19.1 0.00 0.00 0.00 58 1014.6
20260904104004 82 261 6.1 15.6 0.00 0.00 0.00 59 1014.6
20260904103503 83 279 8.7 14.8 0.00 0.00 0.00 59 1014.7
20260904103004 82 249 5.2 15.6 0.00 0.00 0.00 59 1014.9
20260904101504 81 289 4.3 11.3 0.00 0.00 0.00 61 1014.9
20260904100004 80 279 8.7 19.1 0.00 0.00 0.00 63 1014.9
20260904094004 81 292 11.3 24.3 0.00 0.00 0.00 62 1015.4
20260904093505 81 306 6.1 12.2 0.00 0.00 0.00 61 1015.4
20260904093006 81 307 4.3 14.8 0.00 0.00 0.00 62 1015.3
20260904090506 80 304 6.1 13.0 0.00 0.00 0.00 64 1015.6
20260904090005 79 265 7.0 13.0 0.00 0.00 0.00 65 1015.8
20260904084506 78 284 5.2 15.6 0.00 0.00 0.00 67 1015.9
20260904084005 78 290 8.7 15.6 0.00 0.00 0.00 68 1016.1
20260904083005 77 250 4.3 11.3 0.00 0.00 0.00 70 1015.9
20260904081005 77 194 1.7 6.1 0.00 0.00 0.00 69 1016.3
20260904080506 76 233 2.6 7.0 0.00 0.00 0.00 71 1016.3
20260904080005 76 196 2.6 7.0 0.00 0.00 0.00 71 1016.3
20260904074006 75 291 1.7 6.1 0.00 0.00 0.00 74 1016.6
20260904073506 74 283 0.9 2.6 0.00 0.00 0.00 73 1016.6
20260904073006 74 329 0.9 4.3 0.00 0.00 0.00 75 1016.6
20260904071505 74 257 0.9 2.6 0.00 0.00 0.00 75 1016.6
20260904071006 73 248 0.9 2.6 0.00 0.00 0.00 76 1016.8
20260904070505 72 275 0.9 4.3 0.00 0.00 0.00 76 1016.8
20260904070005 72 261 2.6 6.1 0.00 0.00 0.00 77 1016.7
20260904064005 71 324 1.7 2.6 0.00 0.00 0.00 79 1017.1
20260904063505 70 280 1.7 4.3 0.00 0.00 0.00 80 1017.2
20260904063006 70 271 1.7 6.1 0.00 0.00 0.00 81 1016.9
20260904061505 69 289 1.7 2.6 0.00 0.00 0.00 83 1017.3
20260904061006 69 281 1.7 2.6 0.00 0.00 0.00 84 1016.9
20260904060506 69 297 1.7 4.3 0.00 0.00 0.00 84 1016.9
20260904060005 68 271 1.7 6.1 0.00 0.00 0.00 85 1017.1
20260904054506 68 291 1.7 7.0 0.00 0.00 0.00 86 1017.6
20260904053506 67 296 2.6 6.1 0.00 0.00 0.00 87 1017.3
20260904051505 66 247 3.5 4.3 0.00 0.00 0.00 88 1017.3
20260904051005 66 262 0.9 2.6 0.00 0.00 0.00 89 1017.3
20260904050506 66 274 0.9 1.7 0.00 0.00 0.00 89 1017.3
20260904050007 65 275 0.0 2.6 0.00 0.00 0.00 90 1017.3
20260904044506 65 275 0.0 2.6 0.00 0.00 0.00 92 1017.4
20260904044005 65 276 0.0 0.0 0.00 0.00 0.00 92 1017.3
20260904043506 65 276 0.0 0.0 0.00 0.00 0.00 92 1017.3
20260904043006 65 276 0.0 0.0 0.00 0.00 0.00 92 1017.3
20260904041506 65 276 0.0 0.0 0.00 0.00 0.00 92 1017.5
20260904040506 65 276 0.0 0.0 0.00 0.00 0.00 92 1017.6
20260904040005 65 277 0.0 0.0 0.00 0.00 0.00 92 1017.6
20260904034506 64 277 0.0 0.0 0.00 0.00 0.00 93 1017.9
20260904034007 64 277 0.0 0.0 0.00 0.00 0.00 93 1017.9
20260904033005 63 276 0.0 1.7 0.00 0.00 0.00 93 1017.9
20260904031504 63 275 0.0 1.7 0.00 0.00 0.00 93 1017.9
20260904031006 63 275 0.9 2.6 0.00 0.00 0.00 93 1018.1
20260904030506 63 275 0.0 0.0 0.00 0.00 0.00 93 1018.3
20260904030005 63 275 0.0 2.6 0.00 0.00 0.00 93 1018.3
20260904024506 63 274 1.7 2.6 0.00 0.00 0.00 92 1018.3
20260904023505 63 277 0.0 0.0 0.00 0.00 0.00 92 1018.3
20260904023005 63 276 0.0 2.6 0.00 0.00 0.00 92 1018.3